User: anonymous   Login
Location: Unspecified
(0.0000°N, 0.0000°E)
Time: 05:26:29
(UTC+00:00)
Language:

DIDO 2 - Orbit

View from above orbital plane
View from above orbital plane
View from above satellite
View from above satellite

Ground track
Ground track

The orbit data is extracted from the following two-line orbital elements,

1 42000U 17008BE  18321.90444144 +.00000994 +00000-0 +44593-4 0  9998
2 42000 097.4306 024.9612 0008477 181.6410 178.4801 15.23502847096807
Epoch (UTC): 17 November 2018 21:42:23
Eccentricity: 0.0008477
inclination: 97.4306°
perigee height: 489 km
apogee height: 501 km
right ascension of ascending node: 24.9612°
argument of perigee: 181.6410°
revolutions per day: 15.23502847
mean anomaly at epoch: 178.4801°
orbit number at epoch: 9680

The dashed part of the orbit path shows where the satellite is in the earth's shadow,  

DLR